FLOCK 2K-37 (42867 NORAD) Tracking and Keplerian Element Data

This shows tracking and keplerian element data for the satellite.

Feedback or suggestion? Click here.




ElementValue
Catalog42867
NameFLOCK 2K-37
Epoch Orbit3280
Epoch Day45.5108855
Epoch Year2018
RAAN308.3134
Inclination96.9929
Eccentricity0.0010463
Argument of Perigee187.3108
Mean Anonmoly172.7986
Mean Motion15.35660484
Decay Rate7.632E-05
L11 42867U 17042AU 18045.51088550 .00007632 00000-0 22190-3 0 9996
L22 42867 96.9929 308.3134 0010463 187.3108 172.7986 15.35660484 32802

Live tracking and technical data element details for FLOCK 2K-37 (NORAD 42867). FLOCK 2K-37 can be tracked NOW for your location showing map with azimuth and elevation plus other details from your city location.

Track the satellite on the map from your city or location and see movement details for azimuth, elevation, latitude, longitude, range, height, and movement on the map or in text.







IsCatalogInMostPopularTable: catalog: 42867, numindb: 130
Update: records affected: 1



GetName: 42867 FLOCK 2K-37

Hit Count: updated at: Mon, 19 Nov 2018 11:27:11 GMT